This demonstration page uses our WeatherBlox Daily Observations layout. Learn more.

Left ArrowRight Arrow

39.01783, -85.05884

Hourly Observations for June 11, 2018

Temp ( °F °C ) Dew Point ( °F °C ) Humidity (%) Winds ( mph kmh ) Pressure ( in mb ) Visibility ( mi km ) Precip ( " mm )
12:52 am 00:52 Cloudy 67 19.4 65 18.3 93 93 SSE 8 13 29.82 1010 10 16 N/A
1:52 am 01:52 Cloudy 67 19.4 65 18.3 93 93 N N/A 29.85 1011 8 13 N/A
2:52 am 02:52 Cloudy 67 19.4 65 18.3 93 93 SSW 3 6 29.85 1011 10 16 N/A
3:52 am 03:52 Cloudy 66 18.9 64 17.8 93 93 SSE 5 7 29.83 1010 10 16 N/A
4:52 am 04:52 Cloudy with Drizzle 67 19.4 65 18.3 93 93 W 6 9 29.85 1011 5 8 N/A
5:52 am 05:52 Mostly Cloudy 67 19.4 65 18.3 93 93 S 6 9 29.84 1011 7 11 N/A
6:25 am 06:25 Cloudy with Mist and Fog 67 19.4 65 18.3 93 93 SW 5 7 29.85 1011 4 6 N/A
6:35 am 06:35 Cloudy with Mist and Fog 67 19.4 65 18.3 93 93 SW 6 9 29.88 1012 1 2 N/A
6:48 am 06:48 Cloudy with Mist and Fog 66 19 64 18 94 94 SSW 3 6 29.88 1012 6 10 N/A
6:52 am 06:52 Cloudy with Mist and Fog 67 19.4 65 18.3 93 93 SSW 5 7 29.88 1012 6 10 N/A
7:52 am 07:52 Cloudy with Mist and Fog 68 20 65 18.3 90 90 SW 5 7 29.91 1013 6 10 N/A
8:52 am 08:52 Cloudy with Light Rain 69 20.6 66 18.9 90 90 SSW 3 6 29.92 1013 8 13 N/A
9:02 am 09:02 Cloudy with Light Rain 69 20.6 65 18.3 87 87 VRB 3 6 29.91 1013 2 2 0.01 0.25
9:52 am 09:52 Cloudy with Light Rain 68 20 67 19.4 96 96 SSW 5 7 29.93 1014 2 2 0.18 4.57
10:02 am 10:02 Cloudy with Light Rain 68 20 67 19.4 96 96 W 7 11 29.94 1014 3 5 0.01 0.25
10:18 am 10:18 Cloudy with Light Rain 68 20 67 19.4 96 96 W 7 11 29.94 1014 3 5 0.02 0.51
10:52 am 10:52 Cloudy with Light Rain 68 20 68 20 100 100 SSW 7 11 29.95 1014 7 11 0.03 0.76
11:29 am 11:29 Cloudy with Light Rain 69 20.6 69 20.6 100 100 N N/A 29.94 1014 8 13 0.01 0.25
11:52 am 11:52 Cloudy 71 21.7 70 21.1 96 96 N N/A 29.93 1014 10 16 0.01 0.25
12:52 pm 12:52 Cloudy with Light Rain 72 22.2 66 18.9 82 82 S 6 9 29.94 1014 10 16 N/A
1:52 pm 13:52 Mostly Cloudy 74 23.3 65 18.3 74 74 SSE 5 7 29.93 1014 10 16 N/A
2:52 pm 14:52 Mostly Cloudy 77 25 65 18.3 66 66 S 8 13 29.91 1013 10 16 N/A
3:10 pm 15:10 Mostly Cloudy 77 25 64 17.8 64 64 N N/A 29.91 1013 10 16 N/A
3:52 pm 15:52 Cloudy 77 25 65 18.3 66 66 SW 5 7 29.89 1012 10 16 N/A
4:52 pm 16:52 Cloudy 76 24.4 66 18.9 72 72 SSW 7 11 29.89 1012 10 16 N/A
5:52 pm 17:52 Mostly Cloudy 80 26.7 65 18.3 60 60 WSW 6 9 29.88 1012 10 16 N/A
6:52 pm 18:52 Mostly Cloudy 78 25.6 64 17.8 62 62 SSW 3 6 29.88 1012 10 16 N/A
7:52 pm 19:52 Cloudy 78 25.6 64 17.8 62 62 N 6 9 29.89 1012 10 16 N/A
8:52 pm 20:52 Cloudy 76 24.4 65 18.3 69 69 ENE 8 13 29.91 1013 10 16 N/A
9:52 pm 21:52 Cloudy 74 23.3 66 18.9 76 76 E 6 9 29.91 1013 10 16 N/A
10:07 pm 22:07 Cloudy 74 23.3 66 18.9 76 76 E 8 13 29.91 1013 10 16 N/A
10:26 pm 22:26 Mostly Cloudy 73 22.8 66 18.9 79 79 E 6 9 29.91 1013 10 16 N/A
10:52 pm 22:52 Partly Cloudy 73 22.8 66 18.9 79 79 E 6 9 29.93 1014 10 16 N/A
11:52 pm 23:52 Partly Cloudy 71 21.7 66 18.9 84 84 ESE 6 9 29.93 1014 10 16 N/A

Powered by AerisWeather